Tracking 20083 objects as of 12-Dec-2019
HD Live streaming from Space Station
objects crossing your sky now

FENGYUN 1C DEB

Track FENGYUN 1C DEB now!
10-day predictions


NORAD ID: 37911
Int'l Code: 1999-025ENL
Perigee: 832.3 km
Apogee: 1,063.0 km
Inclination: 99.4 °
Period: 103.8 minutes
Semi major axis: 7318 km
RCS: 0.0022 m2 (small)
Launch date: May 10, 1999
Source: People's Republic of China (PRC)
Launch site: Taiyaun Space Center, China (TSC)

Note: This is SATELLITE DEBRIS
aabbcc
Your satellite tracking list
Your tracking list is empty




NASA's NSSDC Master Catalog

Two Line Element Set (TLE):
1 37911U 99025ENL 19346.30696729  .00000549  00000-0  46418-3 0  9995
2 37911  99.4088  21.9472 0157600 242.5449 115.9606 13.86625388462487
Source of the keplerian elements: AFSPC